Regional Weather Roundup
Issued by NWS

Home | Current Version | Previous Version | Text Only | Print | Product List | Glossary Off
Versions: 1 2 3 4 5 6 7 8 9 10 11 12 13 14 15 16 17 18 19 20 21 22 23 24 25 26 27 28 29 30 31 32 33 34 35 36 37 38 39 40 41 42 43 44 45 46 47 48 49 50

933
ASUS43 KMKX 290321
RWRWI

WISCONSIN REGIONAL WEATHER ROUNDUP
NATIONAL WEATHER SERVICE MILWAUKEE/SULLIVAN WI
1000 PM CDT WED SEP 28 2016

NOTE: "FAIR" INDICATES FEW OR NO CLOUDS BELOW 12,000 FEET WITH NO
SIGNIFICANT WEATHER AND/OR OBSTRUCTIONS TO VISIBILITY.

WIZ001-002-006>008-014>016-023>028-290400-
NORTHWEST WISCONSIN

CITY           SKY/WX    TMP DP  RH WIND       PRES   REMARKS
SUPERIOR ARPT  CLOUDY    54  51  90 CALM      30.39R
ASHLAND        CLOUDY    52  49  89 N5        30.38R
HAYWARD        PTCLDY    50  48  93 N6        30.37R
SIREN          CLEAR     47  46  96 N5        30.37R
CUMBERLAND     CLEAR     50  46  87 N5        30.36R
RICE LAKE      CLOUDY    55  48  77 NE5       30.36R
CHETEK         NOT AVBL
LADYSMITH      MOCLDY    53  50  91 N7        30.36R
EAU CLAIRE     MOCLDY    54  50  86 N6        30.33R
MENOMONIE      CLEAR     54  49  85 N6        30.34R
NEW RICHMOND   MOCLDY    51  49  92 NE3       30.35S
OSCEOLA        CLEAR     51  51 100 N3        30.38R
$$

WIZ003>005-009-010-017-018-290400-
NORTH CENTRAL WISCONSIN

CITY           SKY/WX    TMP DP  RH WIND       PRES   REMARKS
MANITOWISH WTR NOT AVBL
ARBOR VITAE    CLOUDY    55  51  86 NE6       30.35R
WOODRUFF       CLOUDY    55  51  86 NE6       30.35R
RHINELANDER    CLOUDY    52  52 100 N7        30.34R
EAGLE RIVER    CLOUDY    51  50  95 NE10      30.34R
LAND O LAKES   CLOUDY    52  50  91 NE5       30.37R
PHILLIPS       CLOUDY    52  51  97 N8        30.34R
TOMAHAWK       CLOUDY    52  49  87 NE5       30.33R
MEDFORD        CLOUDY    52  52 100 N7        30.32R
MERRILL        CLEAR     50  50 100 NE5       30.32R
$$

WIZ029-030-035-036-043>047-290400-
CENTRAL WISCONSIN

CITY           SKY/WX    TMP DP  RH WIND       PRES   REMARKS
WAUSAU         CLEAR     53  49  86 N7        30.29R
MOSINEE        CLEAR     52  50  93 N10       30.30R
MARSHFIELD     CLOUDY    56  49  77 NE10      30.28R
STEVENS POINT  PTCLDY    51  48  92 NE7       30.29R
WAUPACA        CLEAR     52  51  95 N5        30.26R
WAUTOMA        CLEAR     52  49  89 N5        30.25R
WISC RAPIDS    PTCLDY    50  49  96 N8        30.28R
CAMP DOUGLAS   CLEAR     45  45  99 W5        30.26R
$$

WIZ011>013-019>022-031-037>040-048>050-290400-
NORTHEAST WISCONSIN

CITY           SKY/WX    TMP DP  RH WIND       PRES   REMARKS
ANTIGO         CLEAR     49  48  97 CALM      30.31R
SHAWANO        CLEAR     56  52  85 NE13G18   30.28R
OCONTO         NOT AVBL
STURGEON BAY   PTCLDY    58  55  90 N12       30.25R
GREEN BAY      CLEAR     54  54 100 N14       30.24R
MANITOWOC      CLEAR     57  52  83 MISG      30.21R
APPLETON       PTCLDY    54  52  94 N12       30.22R
CLINTONVILLE   CLEAR     54  50  87 NE8       30.26R
OSHKOSH        CLEAR     54  50  86 N8        30.22R
$$

WIZ032>034-041-042-053>061-290400-
SOUTHWEST WISCONSIN

CITY           SKY/WX    TMP DP  RH WIND       PRES   REMARKS
LA CROSSE      PTCLDY    56  51  84 N7        30.27R
SPARTA         CLEAR     52  49  92 N7        30.28R
VIROQUA        CLEAR     51  50  95 N3        30.26R
BOSCOBEL       PTCLDY    54  50  86 E3        30.25R
PRAIRIE DU CHI CLEAR     55  47  75 N5        30.25R
PLATTEVILLE    CLEAR     52  51  98 N6        30.22S
$$

WIZ056-057-062-063-064-067-068-290400-
SOUTH CENTRAL WISCONSIN

CITY           SKY/WX    TMP DP  RH WIND       PRES   REMARKS
REEDSBURG      NOT AVBL
BARABOO/DELLS  CLEAR     52  48  84 N3        30.24R
LONE ROCK      CLEAR     52  49  89 W5        30.25R
MINERAL POINT  CLEAR     52  50  93 N7        30.22R
MADISON        CLEAR     52  49  89 N8        30.19F
MIDDLETON      CLEAR     54  52  92 N9        30.21S
WATERTOWN      CLEAR     54  50  87 N9        30.18R
MONROE         CLEAR     52  50  93 N9        30.19R
JANESVILLE     NOT AVBL
$$

WIZ051-052-058>065-066-070>072-290400-
SOUTHEAST WISCONSIN

CITY           SKY/WX    TMP DP  RH WIND       PRES   REMARKS
MILWAUKEE      MOCLDY    61  52  72 N17G26    30.13R
WAUKESHA       CLEAR     54  48  82 N8        30.17R
MILWAUKEE/TIMM CLEAR     55  48  76 N13       30.16R
RACINE         CLOUDY    58  53  84 N18G25    30.13R
BURLINGTON     CLEAR     54  49  83 N8        30.14R
KENOSHA        CLOUDY    59  54  83 N13G20    30.11R
FOND DU LAC    CLEAR     57  52  83 N13       30.21R
SHEBOYGAN      CLEAR     57  52  83 N12       30.18R
WEST BEND      CLEAR     54  50  87 N9        30.18R
JUNEAU         CLEAR     54  50  86 N12G17    30.20R
$$

LSZ147-162-290400-
LAKE SUPERIOR

STATION/POSITION TIME  TEMP    WIND        PRES    WAVE
                       AIR SEA DIR/SP/G            HT/PER
                 (UTC) (F)     (DEG/KT/KT) (MB)    (FT/S)
W MID LAKE BUOY  0250   55 54   40/  4/  6 1028.6R   2/ 6
DEVILS ISLAND    0300   53      50/  6/  7 1029.1R
PORT WING        0140   55      40/  7/  7 1028.1
SAXON HARBOR     0200   56      30/  8/  9 1027.8R
$$

LMZ867-665-643>646-290400-
LAKE MICHIGAN

STATION/POSITION TIME  TEMP    WIND        PRES    WAVE
                       AIR SEA DIR/SP/G            HT/PER
                 (UTC) (F)     (DEG/KT/KT) (MB)    (FT/S)
CHAMBERS ISLAND  0200   60     350/ 18/ 24 1024.0R
S GREEN BAY BUOY 0100   62 62   50/ 14/ 16 1022.5
N MID LAKE BUOY  0250   62 66  360/ 21/ 25 1023.3R   3/ 4
NORTHPORT PIER   0200   60      10/ 15/ 18 1024.0R
SISTER BAY       0223   59      20/ 14/ 18   N/A
KEWAUNEE LAKESHO 0200   57     350/  8/ 12 1022.2R
SHEBOYGAN LAKESH 0300   58      10/ 21/ 24 1021.7R
PORT WASHINGTON  0200   58     360/  7/ 12 1021.3
ATWATER BUOY     0300   57 53   10/ 16/ 21 1020.3R
MILWAUKEE LAKESH 0210   60     350/ 18/ 20   N/A
S MID LAKE BUOY  0250   65 69   40/ 25/ 29 1017.4R   7/ 6
KENOSHA   LAKESH 0300   59     360/ 23/ 28 1019.0S
$$

TC  - TEMPERATURE IN CELSIUS
VSB - VISIBILITY IN STATUTE MILES
WCI - WIND CHILL INDEX
HX  - HEAT INDEX





USA.gov is the U.S. government's official web portal to all federal, state and local government web resources and services.